Flight Track Log - Related Links

Times and Time Zones

All times are in EDT time to prevent confusion due to time zone crossing. See the N589H flight status page for this flight to view local times or setup timezone preferences in your user account.

Time Position Orientation Groundspeed Altitude Reporting Facility
EDT Latitude Longitude Course Direction KTS MPH feet Rate Location/Type
Fri 12:49:44 PM 30.6797 -88.2331 83° East 143 165 1,000  Level Houston Center
Fri 12:50:47 PM 30.6528 -88.1889 130° Southeast 180 207 2,700 2,064 Climbing Houston Center
Fri 12:51:49 PM 30.6811 -88.1217 64° Northeast 191 220 5,300 2,323 Climbing Houston Center
Fri 12:52:51 PM 30.7050 -88.0619 65° Northeast 200 230 7,500 2,081 Climbing Houston Center
Fri 12:53:53 PM 30.7308 -87.9967 65° Northeast 221 254 9,600 2,129 Climbing Houston Center
Fri 12:54:55 PM 30.7569 -87.9300 65° Northeast 226 260 11,900 2,064 Climbing Houston Center
Fri 12:55:00 PM 30.7862 -87.1883 83° East  Level FlightAware Approximate
Fri 12:55:58 PM 30.7589 -87.8542 88° East 234 269 13,900  Level Houston Center
Fri 12:57:00 PM 30.7653 -87.7586 86° East 248 285 16,100 1,935 Climbing Houston Center
Fri 12:58:02 PM 30.7706 -87.6744 86° East 257 296 17,900 1,694 Climbing Houston Center
Fri 12:59:04 PM 30.7744 -87.5886 87° East 265 305 19,600 1,500 Climbing Houston Center
Fri 01:00:06 PM 30.7797 -87.4986 86° East 276 318 21,000 1,440 Climbing Houston Center
Fri 01:01:09 PM 30.7844 -87.4058 87° East 287 330 22,600 1,392 Climbing Houston Center
Fri 01:02:11 PM 30.7900 -87.2922 87° East 295 339 23,900 1,138 Climbing Houston Center
Fri 01:03:05 PM 30.7967 -87.2092 85° East 290 334 24,800 579 Climbing Jacksonville Center
Fri 01:04:05 PM 30.7728 -87.1139 106° East 295 339 25,000 100 Climbing Jacksonville Center
Fri 01:05:05 PM 30.7408 -87.0011 108° East 326 375 25,000  Level Jacksonville Center
Fri 01:06:05 PM 30.7011 -86.8764 110° East 364 419 25,000  Level Jacksonville Center
Fri 01:07:05 PM 30.6692 -86.7567 107° East 375 432 25,000  Level Jacksonville Center
Fri 01:08:05 PM 30.6353 -86.6419 109° East 375 432 25,000  Level Jacksonville Center
Fri 01:09:05 PM 30.6031 -86.5247 108° East 375 432 25,000  Level Jacksonville Center
Fri 01:10:05 PM 30.5492 -86.4333 124° Southeast 356 410 25,000  Level Jacksonville Center
Fri 01:11:05 PM 30.4869 -86.3467 130° Southeast 351 404 25,000  Level Jacksonville Center
Fri 01:12:05 PM 30.4267 -86.2578 128° Southeast 351 404 25,000  Level Jacksonville Center
Fri 01:13:05 PM 30.3683 -86.1717 128° Southeast 346 398 25,000  Level Jacksonville Center
Fri 01:14:05 PM 30.3081 -86.0828 128° Southeast 346 398 25,000  Level Jacksonville Center
Fri 01:15:05 PM 30.2475 -85.9944 128° Southeast 346 398 25,000  Level Jacksonville Center
Fri 01:16:05 PM 30.1892 -85.9083 128° Southeast 346 398 25,000  Level Jacksonville Center
Fri 01:17:05 PM 30.1286 -85.8200 128° Southeast 346 398 25,000  Level Jacksonville Center
Fri 01:18:05 PM 30.0719 -85.7392 129° Southeast 341 392 25,000  Level Jacksonville Center
Fri 01:19:05 PM 30.0150 -85.6656 132° Southeast 335 386 25,000  Level Jacksonville Center
Fri 01:20:05 PM 29.9586 -85.5703 124° Southeast 349 402 25,000  Level Jacksonville Center
Fri 01:21:05 PM 29.9000 -85.4850 128° Southeast 349 402 25,000  Level Jacksonville Center
Fri 01:22:05 PM 29.8392 -85.3947 128° Southeast 349 402 25,000  Level Jacksonville Center
Fri 01:23:05 PM 29.7803 -85.3094 128° Southeast 349 402 25,000  Level Jacksonville Center
Fri 01:24:05 PM 29.7172 -85.2194 129° Southeast 349 402 25,000  Level Jacksonville Center
Fri 01:25:05 PM 29.6539 -85.1294 129° Southeast 354 407 25,000  Level Jacksonville Center
Fri 01:26:05 PM 29.5889 -85.0397 130° Southeast 359 413 25,000  Level Jacksonville Center
Fri 01:27:05 PM 29.5278 -84.9453 127° Southeast 364 419 25,000  Level Jacksonville Center
Fri 01:28:05 PM 29.4644 -84.8556 129° Southeast 364 419 25,000  Level Jacksonville Center
Fri 01:29:05 PM 29.4011 -84.7636 128° Southeast 364 419 25,000  Level Jacksonville Center
Fri 01:30:05 PM 29.3333 -84.6744 131° Southeast 364 419 25,000  Level Jacksonville Center
Fri 01:31:05 PM 29.2719 -84.5828 128° Southeast 364 419 25,000  Level Jacksonville Center
Fri 01:32:05 PM 29.2086 -84.4914 128° Southeast 364 419 25,000  Level Jacksonville Center
Fri 01:33:05 PM 29.1347 -84.3903 130° Southeast 369 425 25,000  Level Jacksonville Center
Fri 01:34:05 PM 29.0708 -84.2989 129° Southeast 369 425 25,000  Level Jacksonville Center
Fri 01:35:05 PM 29.0072 -84.2078 129° Southeast 369 425 25,000  Level Jacksonville Center
Fri 01:36:05 PM 28.9414 -84.1169 130° Southeast 369 425 25,000  Level Jacksonville Center
Fri 01:37:05 PM 28.8775 -84.0261 129° Southeast 369 425 25,000  Level Jacksonville Center
Fri 01:38:05 PM 28.8114 -83.9375 130° Southeast 364 419 25,000  Level Jacksonville Center
Fri 01:39:05 PM 28.7475 -83.8469 129° Southeast 364 419 25,000 -500 Level Jacksonville Center
Fri 01:40:05 PM 28.6833 -83.7564 129° Southeast 364 419 24,000 -1,500 Descending Jacksonville Center
Fri 01:41:05 PM 28.6192 -83.6658 129° Southeast 364 419 22,000 -1,750 Descending Jacksonville Center
Fri 01:42:05 PM 28.5572 -83.5781 129° Southeast 358 412 20,500 -1,500 Descending Jacksonville Center
Fri 01:43:05 PM 28.4969 -83.4950 130° Southeast 352 405 19,000 -1,714 Descending Jacksonville Center
Fri 01:44:53 PM 28.3833 -83.3500 132° Southeast 345 397 15,700 -1,821 Descending Tampa TRACON
Fri 01:45:53 PM 28.3333 -83.2667 124° Southeast 328 377 13,900 -1,700 Descending Tampa TRACON
Fri 01:46:53 PM 28.2833 -83.1833 124° Southeast 315 362 12,300 -1,750 Descending Tampa TRACON
Fri 01:47:53 PM 28.2667 -83.0833 101° East 304 350 10,400 -2,100 Descending Tampa TRACON
Fri 01:48:53 PM 28.2500 -83.0000 103° East 299 344 8,100 -2,150 Descending Tampa TRACON
Fri 01:49:53 PM 28.2000 -82.9167 124° Southeast 270 311 6,100 -1,950 Descending Tampa TRACON
Fri 01:50:53 PM 28.1667 -82.8500 120° Southeast 252 290 4,200 -1,600 Descending Tampa TRACON
Fri 01:51:53 PM 28.1167 -82.8000 139° Southeast 222 255 2,900 -1,000 Descending Tampa TRACON
Fri 01:52:53 PM 28.0833 -82.7500 127° Southeast 158 182 2,200 -450 Descending Tampa TRACON
Fri 01:53:53 PM 28.0500 -82.7333 156° South 161 185 2,000 -158 Descending Tampa TRACON
Fri 01:54:47 PM 28.0167 -82.7000 139° Southeast 167 192 1,900 -474 Descending Tampa TRACON
Fri 01:55:47 PM 27.9833 -82.7000 180° South 137 158 1,100 -800 Descending Tampa TRACON
Fri 01:56:47 PM 27.9333 -82.7000 180° South 125 144 300 -800 Descending Tampa TRACON

Login

Don't have an account? Register now (free) for customized features, flight alerts, and more!